[[{"header":{"parameterUnit":"m.s-1","parameterCategory":1,"la1":30.2991,"la2":30.254,"lo1":-89.0895,"lo2":-89.0444,"dy":0.0017,"dx":0.0017,"nx":28,"ny":28,"refTime":"2023-11-05T03:00:00:Z","depth":0,"parameterNumber":2,"parameterNumberName":"U-component_of_WINDS"},"data":[0,0,0,0,0,0,0,0,0,0,0,0,0,0,0,0,0,0,0,0,0,0,0,0,0,0,0,0,0,0,0,0,0,0,0,0,0,0,0,0,0,0,0,0,0,0,0,0,0,0,0,0,0,0,0,0,0,0,1.4279,1.4279,0,1.4278,1.4278,1.4278,1.4229,1.4228,1.4227,1.4226,1.4224,1.4225,1.4226,0,0,0,0,0,0,0,0,0,0,0,0,0,1.424,1.4241,1.4279,1.4279,1.4279,1.4278,1.4278,1.4278,1.423,1.4228,1.4226,1.4225,1.4223,1.4225,1.4226,0,0,0,0,0,0,0,0,0,0,0,0,0,1.425,1.4241,1.4279,1.4255,1.4253,1.4278,1.4278,1.4278,1.423,1.4228,1.4226,1.4224,1.4223,1.4224,1.4226,1.4274,0,0,1.4231,1.4232,0,0,0,0,0,0,0,0,1.4249,1.4251,1.4258,1.4257,1.4254,1.4252,1.4263,1.4276,1.423,1.4239,1.4226,1.4223,1.4234,1.4235,1.4239,1.4274,1.4274,1.4231,1.4232,1.4233,1.4234,0,0,0,0,0,0,0,1.4249,1.4251,1.4278,1.4259,1.4256,1.4244,1.4243,1.4266,1.4247,1.4238,1.4234,1.4235,1.4233,1.4237,1.4239,1.4274,1.4231,1.4233,1.4234,1.4234,1.4349,1.4351,0,0,0,0,0,0,1.4251,1.4251,1.4279,1.4278,1.4247,1.4246,1.4246,1.4254,1.4247,1.4244,1.4236,1.4232,1.4235,1.4237,1.4238,1.4294,1.4233,1.4235,1.4236,1.4347,1.435,1.4352,0,0,0,0,0,0,1.4251,1.4254,1.4279,1.4264,1.4266,1.4249,1.4259,1.4255,1.426,1.4246,1.4242,1.4244,1.4234,1.4236,1.4266,1.4294,1.4235,1.4237,1.4345,1.4348,1.4351,1.4407,0,0,0,0,0,0,1.425,1.4254,1.4272,1.4264,1.4267,1.4306,1.4261,1.4257,1.4263,1.4258,1.4252,1.4249,1.4233,1.4264,1.4268,1.4295,1.4238,1.4342,1.4346,1.435,1.4403,1.4412,1.4419,0,0,0,0,0,1.4249,1.4288,1.4273,1.4277,1.4289,1.4308,1.4309,1.4289,1.4265,1.4283,1.4274,1.425,1.429,1.4267,1.4271,1.4299,1.434,1.4345,1.435,1.4399,1.441,1.4419,0,0,0,0,0,0,1.4298,1.4286,1.427,1.4308,1.4309,1.43,1.4321,1.4302,1.431,1.4305,1.428,1.4279,1.4313,1.4309,1.4283,1.4346,1.4311,1.4317,1.4347,1.4357,1.4366,1.4366,1.424,0,0,0,0,0,1.4314,1.433,1.4319,1.4353,1.4355,1.4338,1.4346,1.4331,1.4331,1.4331,1.4324,1.4326,1.4339,1.4348,1.4359,1.4402,1.44,1.4424,1.4432,1.4439,1.4444,1.4467,1.4478,1.4367,1.4367,1.4367,0,0,1.4345,1.4341,1.4353,1.4363,1.4362,1.438,1.4339,1.4359,1.4372,1.4334,1.4362,1.4358,1.4358,1.4394,1.441,1.4392,1.4474,1.4445,1.4451,1.4452,1.4473,1.4483,1.4493,1.437,1.437,1.4369,0,0,1.4412,1.4411,1.4439,1.444,1.444,1.4429,1.4437,1.443,1.4426,1.4454,1.4426,1.4441,1.4464,1.4465,1.4469,1.4539,1.4517,1.4543,1.4587,1.461,1.4618,1.4626,1.4651,1.466,1.4549,1.4549,1.4549,0,1.4452,1.4478,1.4457,1.4479,1.4485,1.4452,1.4482,1.4483,1.4487,1.4492,1.4472,1.4501,1.4498,1.4535,1.4553,1.4557,1.4564,1.4543,1.4619,1.4626,1.4633,1.4657,1.4666,1.4552,1.4552,1.4551,1.4551,0,1.4526,1.4545,1.4568,1.4573,1.4582,1.4608,1.4591,1.4602,1.4587,1.4578,1.4608,1.4604,1.4614,1.4622,1.4607,1.4658,1.4646,1.4623,1.4588,1.4647,1.4669,1.4678,1.4557,1.4555,1.4554,1.4554,0,0,1.4623,1.4618,1.4627,1.4629,1.4628,1.4641,1.4667,1.4677,1.4687,1.4692,1.4712,1.4733,1.4712,1.4716,1.4701,1.4721,1.4778,1.4696,1.4695,1.4711,1.4834,1.4851,1.4862,1.4763,1.4765,1.4766,1.4834,0,1.4688,1.473,1.4713,1.4757,1.4774,1.4744,1.4766,1.4768,1.4761,1.4775,1.4767,1.4782,1.4753,1.4756,1.4775,1.4767,1.4802,1.4762,1.4782,1.4783,1.4782,1.4873,1.4891,1.4955,1.4842,1.4843,1.4845,0,1.4769,1.4777,1.4823,1.482,1.4827,1.4847,1.4856,1.4869,1.4871,1.4864,1.487,1.4851,1.4876,1.4841,1.4875,1.4848,1.4855,1.4853,1.4855,1.4856,1.4817,1.4876,1.4974,1.4984,1.4858,1.4857,1.4856,0,1.4835,1.4858,1.4888,1.4892,1.4888,1.4903,1.4903,1.4903,1.4911,1.4919,1.4924,1.4935,1.494,1.4949,1.4934,1.491,1.497,1.4934,1.4965,1.4966,1.4978,1.4978,1.5079,1.4984,1.4984,1.4984,1.4984,0,1.4909,1.4938,1.4918,1.4937,1.4969,1.495,1.4982,1.4978,1.4979,1.4997,1.4972,1.4989,1.4967,1.4983,1.4971,1.5001,1.5004,1.4999,1.4995,1.5001,1.5002,1.5005,1.5,1.4986,1.4986,1.4985,1.4985,0,1.4988,1.4976,1.5007,1.5002,1.5002,1.5026,1.5022,1.5039,1.5031,1.5054,1.5058,1.5046,1.5062,1.5048,1.5064,1.5056,1.5096,1.5086,1.5096,1.5093,1.5125,1.5122,1.5232,1.5245,1.5142,1.5143,1.5144,0,1.5035,1.5057,1.5056,1.5066,1.5067,1.5084,1.5093,1.5075,1.5085,1.5089,1.5106,1.5121,1.5132,1.516,1.5152,1.5165,1.5155,1.5193,1.5156,1.5162,1.5155,1.5154,1.5156,1.52,1.5201,1.5202,1.5203,0,1.5121,1.5115,1.5128,1.514,1.5151,1.5159,1.5166,1.5176,1.5157,1.517,1.5187,1.5196,1.5213,1.5228,1.5238,1.5237,1.5217,1.5214,1.5222,1.5228,1.5232,1.523,1.5115,1.5212,1.5211,1.521,1.5209,1.5209,1.5186,1.5205,1.5207,1.5223,1.5226,1.5233,1.5249,1.5244,1.5258,1.5271,1.526,1.5281,1.5283,1.5294,1.5296,1.5313,1.5297,1.5308,1.5311,1.5314,1.5319,1.5231,1.5314,1.5314,1.5314,1.5314,1.5313,0,1.5271,1.5271,1.5286,1.5296,1.5309,1.529,1.5297,1.5309,1.5328,1.5332,1.5343,1.5364,1.5379,1.5373,1.5386,1.54,1.5391,1.5404,1.5402,1.5403,1.5332,1.5324,1.5411,1.5411,1.5411,1.5411,1.5411,1.5411,1.5316,1.5347,1.5341,1.5373,1.5373,1.5394,1.5399,1.5406,1.5409,1.5433,1.5446,1.5442,1.5442,1.5456,1.5469,1.5467,1.5473,1.5489,1.5483,1.5417,1.5408,1.5398,1.5391,1.549,1.5491,1.5553,1.5553,1.5554]},{"header":{"parameterUnit":"m.s-1","parameterCategory":1,"la1":30.2991,"la2":30.254,"lo1":-89.0895,"lo2":-89.0444,"dy":0.0017,"dx":0.0017,"nx":28,"ny":28,"refTime":"2023-11-05T03:00:00:Z","depth":0,"parameterNumber":3,"parameterNumberName":"V-component_of_WINDS"},"data":[0,0,0,0,0,0,0,0,0,0,0,0,0,0,0,0,0,0,0,0,0,0,0,0,0,0,0,0,0,0,0,0,0,0,0,0,0,0,0,0,0,0,0,0,0,0,0,0,0,0,0,0,0,0,0,0,0,0,-1.168,-1.1681,0,-1.176,-1.1761,-1.1761,-1.1782,-1.1782,-1.1781,-1.1781,-1.1861,-1.1864,-1.1866,0,0,0,0,0,0,0,0,0,0,0,0,0,-1.1547,-1.1549,-1.168,-1.1681,-1.1682,-1.1759,-1.1761,-1.1762,-1.1782,-1.1782,-1.1781,-1.1781,-1.186,-1.1863,-1.1866,0,0,0,0,0,0,0,0,0,0,0,0,0,-1.1613,-1.155,-1.168,-1.1702,-1.1705,-1.1759,-1.1761,-1.1762,-1.1782,-1.1782,-1.1781,-1.178,-1.1859,-1.1863,-1.1867,-1.1905,0,0,-1.1879,-1.188,0,0,0,0,0,0,0,0,-1.161,-1.1618,-1.1698,-1.1701,-1.1704,-1.176,-1.1743,-1.181,-1.1783,-1.1753,-1.1781,-1.178,-1.1828,-1.1834,-1.1851,-1.1909,-1.1912,-1.1879,-1.1881,-1.1883,-1.1884,0,0,0,0,0,0,0,-1.1605,-1.1615,-1.1712,-1.1699,-1.1703,-1.1708,-1.1716,-1.1756,-1.1793,-1.1755,-1.1757,-1.1766,-1.183,-1.1847,-1.1853,-1.1913,-1.1879,-1.1882,-1.1885,-1.1886,-1.2008,-1.2009,0,0,0,0,0,0,-1.1597,-1.1611,-1.1709,-1.1714,-1.1654,-1.1711,-1.172,-1.1743,-1.1793,-1.18,-1.1767,-1.1767,-1.1841,-1.1848,-1.1856,-1.1905,-1.1883,-1.1887,-1.1889,-1.2007,-1.2008,-1.2009,0,0,0,0,0,0,-1.1594,-1.1605,-1.1706,-1.1663,-1.1676,-1.1714,-1.1739,-1.1745,-1.1762,-1.1802,-1.1809,-1.1778,-1.1841,-1.185,-1.1893,-1.1908,-1.1888,-1.1892,-1.2006,-1.2008,-1.2009,-1.2002,0,0,0,0,0,0,-1.159,-1.1604,-1.1619,-1.1663,-1.1679,-1.1742,-1.174,-1.1747,-1.1769,-1.177,-1.1814,-1.182,-1.1841,-1.1887,-1.1897,-1.1913,-1.1895,-1.2005,-1.2007,-1.2008,-1.2002,-1.2003,-1.2005,0,0,0,0,0,-1.1585,-1.1613,-1.162,-1.1631,-1.1698,-1.1743,-1.1751,-1.1774,-1.177,-1.1786,-1.1811,-1.1819,-1.1905,-1.1891,-1.1902,-1.192,-1.2004,-1.2006,-1.2008,-1.2001,-1.2003,-1.2005,0,0,0,0,0,0,-1.1569,-1.162,-1.1627,-1.1671,-1.1702,-1.1746,-1.1766,-1.1776,-1.1809,-1.1809,-1.1836,-1.1845,-1.1886,-1.1907,-1.1892,-1.196,-1.1955,-1.1959,-1.1945,-1.1948,-1.1949,-1.1943,-1.1898,0,0,0,0,0,-1.1571,-1.1603,-1.1645,-1.168,-1.1695,-1.1728,-1.1748,-1.1763,-1.1797,-1.1811,-1.1839,-1.1871,-1.1906,-1.1928,-1.1961,-1.2005,-1.2015,-1.2022,-1.2024,-1.2025,-1.2029,-1.2055,-1.2058,-1.2016,-1.2016,-1.2016,0,0,-1.1574,-1.1606,-1.1624,-1.1677,-1.1704,-1.1737,-1.1739,-1.1773,-1.1798,-1.1816,-1.1858,-1.188,-1.1918,-1.1962,-1.1982,-1.198,-1.2043,-1.2028,-1.2029,-1.2032,-1.2057,-1.2061,-1.2065,-1.2018,-1.2017,-1.2017,0,0,-1.1598,-1.1625,-1.1657,-1.1684,-1.1724,-1.1745,-1.1753,-1.1796,-1.1812,-1.1855,-1.1869,-1.1899,-1.1957,-1.1984,-1.2005,-1.204,-1.2049,-1.205,-1.206,-1.2085,-1.2088,-1.2091,-1.2104,-1.2109,-1.2054,-1.2054,-1.2054,0,-1.1597,-1.1647,-1.1672,-1.1706,-1.173,-1.1748,-1.1781,-1.1805,-1.1854,-1.187,-1.1867,-1.1942,-1.1968,-1.2019,-1.2028,-1.2044,-1.2054,-1.2046,-1.2085,-1.2089,-1.2092,-1.2105,-1.211,-1.2054,-1.2054,-1.2054,-1.2054,0,-1.1645,-1.168,-1.1701,-1.1749,-1.1774,-1.1808,-1.1838,-1.1861,-1.1874,-1.1896,-1.194,-1.1973,-1.2014,-1.2027,-1.204,-1.208,-1.2078,-1.208,-1.2075,-1.2096,-1.2108,-1.2114,-1.2054,-1.2054,-1.2054,-1.2054,0,0,-1.166,-1.1722,-1.1729,-1.1752,-1.1798,-1.1825,-1.186,-1.1901,-1.192,-1.1954,-1.1984,-1.2033,-1.2036,-1.206,-1.2076,-1.2098,-1.2125,-1.2098,-1.2099,-1.2102,-1.2172,-1.2171,-1.2176,-1.2131,-1.2132,-1.2133,-1.2169,0,-1.1689,-1.1752,-1.1776,-1.1828,-1.1861,-1.1879,-1.1909,-1.1941,-1.1963,-1.1994,-1.2018,-1.2053,-1.2054,-1.2069,-1.2091,-1.2117,-1.214,-1.2115,-1.216,-1.2161,-1.215,-1.2183,-1.2181,-1.2213,-1.2174,-1.2175,-1.2176,0,-1.1732,-1.1767,-1.1822,-1.1866,-1.188,-1.1907,-1.1947,-1.1977,-1.2013,-1.2028,-1.2056,-1.2071,-1.2108,-1.2101,-1.2153,-1.2136,-1.2156,-1.2172,-1.2174,-1.2179,-1.217,-1.2189,-1.2224,-1.2229,-1.2184,-1.2183,-1.2183,0,-1.1738,-1.1799,-1.184,-1.1859,-1.191,-1.1929,-1.1951,-1.1987,-1.2011,-1.2046,-1.2061,-1.21,-1.2121,-1.2151,-1.2177,-1.2169,-1.2227,-1.2221,-1.224,-1.224,-1.2252,-1.2251,-1.2291,-1.2264,-1.2264,-1.2264,-1.2264,0,-1.1769,-1.1802,-1.1844,-1.1869,-1.1907,-1.1934,-1.1971,-1.1994,-1.2027,-1.2057,-1.2075,-1.2103,-1.2135,-1.2167,-1.2187,-1.2228,-1.2238,-1.2251,-1.2256,-1.2249,-1.2248,-1.2263,-1.2262,-1.2265,-1.2265,-1.2265,-1.2264,0,-1.1782,-1.1812,-1.1858,-1.1903,-1.1915,-1.1941,-1.198,-1.2006,-1.2029,-1.2067,-1.2078,-1.2114,-1.2153,-1.2182,-1.2232,-1.2246,-1.229,-1.2294,-1.2277,-1.228,-1.2298,-1.2296,-1.2349,-1.2358,-1.2325,-1.2325,-1.2325,0,-1.18,-1.1826,-1.1875,-1.1897,-1.192,-1.1954,-1.1979,-1.2007,-1.2032,-1.2076,-1.2097,-1.2137,-1.2171,-1.2233,-1.2264,-1.2303,-1.2309,-1.2325,-1.2315,-1.2308,-1.231,-1.2309,-1.2312,-1.2327,-1.2327,-1.2327,-1.2327,0,-1.1829,-1.1843,-1.1878,-1.1918,-1.1947,-1.1979,-1.2012,-1.2029,-1.2063,-1.209,-1.2131,-1.2157,-1.221,-1.225,-1.2292,-1.2315,-1.2327,-1.233,-1.2337,-1.2331,-1.232,-1.2327,-1.2282,-1.2329,-1.2329,-1.2328,-1.2328,-1.2328,-1.1846,-1.1871,-1.1909,-1.1947,-1.1976,-1.2006,-1.2033,-1.206,-1.2094,-1.2139,-1.2154,-1.2196,-1.2233,-1.2291,-1.2315,-1.2349,-1.2348,-1.2358,-1.236,-1.2362,-1.2362,-1.2314,-1.2357,-1.2357,-1.2357,-1.2357,-1.2357,0,-1.1877,-1.1903,-1.1938,-1.1984,-1.2014,-1.2023,-1.2061,-1.2086,-1.2123,-1.2157,-1.219,-1.2237,-1.2277,-1.2311,-1.2353,-1.2373,-1.238,-1.2383,-1.2382,-1.2387,-1.236,-1.2351,-1.2377,-1.2377,-1.2377,-1.2377,-1.2377,-1.2377,-1.1896,-1.1938,-1.1957,-1.2013,-1.2039,-1.2081,-1.2102,-1.2131,-1.2158,-1.221,-1.2243,-1.2266,-1.23,-1.2344,-1.2381,-1.239,-1.2405,-1.2407,-1.2418,-1.2391,-1.2389,-1.2387,-1.2378,-1.241,-1.241,-1.2442,-1.2443,-1.2443]}]]